[Date Prev][Date Next][Thread Prev][Thread Next] - [Date Index][Thread Index][Author Index]

2 Line ISS Keps 3-1



ISS
1 25544U 98067A   02060.34980492  .00059700  00000-0  68227-3 0  1303
2 25544  51.6371 234.8009 0010611 128.3430 301.5175 15.61526750187210


----
Via the sarex mailing list at AMSAT.ORG courtesy of AMSAT-NA.
To unsubscribe, send "unsubscribe sarex" to Majordomo@amsat.org



AMSAT Top AMSAT Home